Location: *
(49.0044°N, 9.5056°E)
Time: 13:19:46
(UTC+00:00)

Cosmos 2297 Rocket - Pass Details

Date: 22 September 2019
Orbit: 841 x 842 km, 71.0° (Epoch: 14 October)

Event Time Altitude Azimuth Distance (km) Brightness Sun altitude
Rises 18:12:23 0° 182° (S) 3,385 5.2 -9.2°
Reaches altitude 10° 18:14:56 10° 175° (S) 2,455 4.5 -9.6°
Maximum altitude 18:20:08 39° 108° (ESE) 1,237 2.6 -10.5°
Drops below altitude 10° 18:25:21 10° 41° (NE) 2,470 4.4 -11.3°
Sets 18:27:56 0° 34° (NE) 3,409 5.2 -11.7°
